SCP
0 0 0 0 0 0 0 0 0 0 0 0 0 0 0 0 0 0 0 0 0 0 0 0 0 0 0 0 0 0 0 0 0 0 0 0 0 0 0 0 0 0 0
0 0 0 0 0 0 0 0 0 0 0 0 0 0 0 0 0 0 0 0 0 0 0 0 0 0 0 0 0 0 0 0 0 0 0 0 0 0 0 0 0 0 0
0 0 0 0 0 0 0 0 0 0 0 0 0 0 0 0 0 0 0 0 0 0 0 0 0 0 0 0 0 0 0 0 0 0 0 0 0 0 0 0 0 0 0
0 0 0 0 0 0 0 0 0 0 0 0 0 0 0 0 0 0 0 0 0 0 0 0 0 0 0 0 0 0 0 0 0 0 0 0 0 0 0 0 0 0 0
0 0 0 0 0 0 0 0 0 0 0 0 0 0 0 0 0 0 0 0 0 0 0 0 0 0 0 0 0 0 0 0 0 0 0 0 0 0 0 0 0 0 0
0 0 0 0 0 0 0 0 0 0 0 0 0 0 0 0 0 0 0 0 0 0 0 0 0 0 0 0 0 0 0 0 0 0 0 0 0 0 0 0 0 0 0
0 0 0 0 0 0 0 0 0 0 0 0 0 0 0 0 0 0 0 0 0 0 0 0 0 0 0 0 0 0 0 0 0 0 0 0 0 0 0 0 0 0 0
0 0 0 0 0 0 0 0 0 0 0 0 0 0 0 0 0 0 0 0 0 0 0 0 0 0 0 0 0 0 0 0 0 0 0 0 0 0 0 0 0 0 0
0 0 0 0 0 0 0 0 0 0 0 0 0 0 0 0 0 0 0 0 0 0 0 0 0 0 0 0 0 0 0 0 0 0 0 0 0 0 0 0 0 0 0
0 0 0 0 0 0 0 0 0 0 0 0 0 0 0 0 0 0 0 0 0 0 0 0 0 0 0 0 0 0 0 0 0 0 0 0 0 0 0 0 0 0 0
0 0 0 0 0 0 0 0 0 0 0 0 0 0 0 0 0 0 0 0 0 0 0 0 0 0 0 0 0 0 0 0 0 0 0 0 0 0 0 0 0 0 0
0 0 0 0 0 0 0 0 0 0 0 0 0 0 0 0 0 0 0 0 0 0 0 0 0 0 0 0 0 0 0 0 0 0 0 0 0 0 0 0 0 0 0
0 0 0 0 0 0 0 0 0 0 0 0 0 0 0 0 0 0 0 0 0 0 0 0 0 0 0 0 0 0 0 0 0 0 0 0 0 0 0 0 0 0 0
0 0 0 0 0 0 0 0 0 0 0 0 0 0 0 0 0 0 0 0 0 0 0 0 0 0 0 0 0 0 0 0 0 0 0 0 0 0 0 0 0 0 0
0 0 0 0 0 0 0 0 0 0 0 0 0 0 0 0 0 0 0 0 0 0 0 0 0 0 0 0 0 0 0 0 0 0 0 0 0 0 0 0 0 0 0
0 0 0 0 0 0 0 0 0 0 0 0 0 0 0 0 0 0 0 0 0 0 0 0 0 0 0 0 0 0 0 0 0 0 0 0 0 0 0 0 0 0 0
0 0 0 0 0 0 0 0 0 0 0 0 0 0 0 0 0 0 0 0 0 0 0 0 0 0 0 0 0 0 0 0 0 0 0 0 0 0 0 0 0 0 0
0 0 0 0 0 0 0 0 0 0 0 0 0 0 0 0 0 0 0 0 0 0 0 0 0 0 0 0 0 0 0 0 0 0 0 0 0 0 0 0 0 0 0
0 0 0 0 0 0 0 0 0 0 0 0 0 0 0 0 0 0 0 0 0 0 0 0 0 0 0 0 0 0 0 0 0 0 0 0 0 0 0 0 0 0 0
0 0 0 0 0 0 0 0 0 0 0 0 0 0 0 0 0 0 0 0 0 0 0 0 0 0 0 0 0 0 0 0 0 0 0 0 0 0 0 0 0 0 0
0 0 0 0 0 0 0 0 0 0 0 0 0 0 0 0 0 0 0 0 0 0 0 0 0 0 0 0 0 0 0 0 0 0 0 0 0 0 0 0 0 0 0
0 0 0 0 0 0 0 0 0 0 0 0 0 0 0 0 0 0 0 0 0 0 0 0 0 0 0 0 0 0 0 0 0 0 0 0 0 0 0 0 0 0 0
0 0 1 0 0 0 0 0 0 0 0 0 0 0 0 0 0 0 0 0 0 0 0 0 0 0 0 0 0 0 0 0 0 0 0 0 0 0 0 0 0 0 0
1 1 1 1 0 0 0 0 0 0 0 0 0 0 0 0 0 0 0 0 0 0 0 0 0 0 0 0 0 0 0 0 0 0 0 0 0 0 0 0 0 0 0
1 1 1 1 0 0 0 0 0 0 0 0 0 0 0 0 0 0 0 0 0 0 0 0 0 0 0 0 0 0 0 0 0 0 0 0 0 0 0 0 0 0 0
1 1 1 1 0 0 0 0 0 0 0 0 0 0 0 0 0 0 0 0 0 0 0 0 0 0 0 0 0 0 0 0 0 0 0 0 0 0 0 0 0 0 0
Wind_Speed
3 4 9 9 10 10 9 9 8 8 8 8 7 7 8 9 9 9 9 10 10 10 10 10 10 10 10 10 11 12 11 11 11 11 11 11 11 11 11 11 9 6 10
6 6 9 9 9 9 8 8 8 9 9 8 8 8 9 9 9 9 9 9 10 10 10 10 10 10 10 11 11 11 11 10 10 10 11 10 11 11 10 11 10 6 10
7 6 8 10 9 9 9 9 9 9 8 8 8 8 9 9 9 9 9 9 9 9 9 9 10 10 9 10 10 11 10 10 10 10 9 5 6 10 9 10 10 11 11
7 5 7 10 9 9 9 9 9 9 8 8 8 8 8 8 8 8 8 8 8 8 9 9 9 9 9 9 9 10 10 10 10 10 5 4 4 8 9 9 10 10 11
6 4 6 10 9 9 9 8 8 8 8 8 8 8 8 8 8 8 8 8 8 8 8 8 8 9 8 9 9 9 9 10 9 7 4 4 4 7 9 10 10 10 11
5 4 6 9 8 8 9 9 8 8 8 8 7 7 7 7 7 7 7 8 8 7 7 7 7 8 8 8 8 8 9 9 8 4 4 4 4 8 9 10 9 10 11
5 3 5 8 7 7 8 9 9 8 8 7 7 7 7 6 6 7 7 8 7 7 7 6 6 7 7 8 8 8 8 8 5 4 4 4 6 9 10 10 9 9 10
6 4 4 7 7 7 8 9 9 8 8 7 7 7 6 6 5 5 6 7 7 7 6 6 6 6 7 8 8 8 7 8 5 5 4 4 8 10 10 10 9 9 9
5 4 2 2 4 7 8 9 9 8 7 7 7 6 6 5 4 4 5 6 6 6 6 5 5 6 7 8 7 7 7 7 4 3 5 4 8 10 11 11 10 10 10
4 3 3 2 2 3 4 8 8 8 7 6 6 5 5 4 4 4 3 4 5 5 5 5 5 5 6 7 7 6 6 5 3 3 3 5 9 10 11 11 11 10 10
4 3 2 2 2 3 3 5 6 6 6 5 4 4 3 0 1 2 4 4 4 3 3 3 3 4 5 5 6 6 6 3 4 3 3 7 10 11 11 11 11 11 10
4 3 2 3 3 3 3 3 2 2 2 2 2 2 1 1 1 2 3 3 3 2 2 2 2 2 3 2 4 4 3 4 3 3 4 8 9 10 11 11 11 11 11
5 4 3 3 3 3 2 3 2 2 2 2 2 2 2 2 2 2 1 0 0 0 1 1 1 1 2 3 3 3 3 3 2 3 4 9 9 10 12 11 12 12 11
6 5 4 4 4 3 3 3 2 2 2 2 2 2 2 2 2 2 1 1 1 1 1 1 0 1 3 4 4 4 4 3 3 3 4 9 9 10 11 11 11 11 10
6 5 4 4 4 3 3 3 3 3 3 2 2 2 2 2 2 2 1 1 1 1 1 1 2 2 3 4 4 4 4 3 3 3 3 9 9 9 10 10 11 11 10
5 4 4 4 4 4 3 3 3 3 3 3 2 2 3 2 2 2 2 2 2 2 1 2 2 2 2 3 4 4 4 3 3 3 3 5 8 9 9 9 9 10 10
5 4 4 4 4 4 4 3 3 3 3 3 2 2 3 3 3 3 2 2 2 2 2 2 3 3 3 3 4 4 3 3 4 3 3 2 4 7 9 9 8 9 9
6 5 4 5 4 4 4 3 3 3 3 2 2 2 3 3 3 3 2 2 2 2 2 2 3 3 3 3 3 2 3 3 3 3 3 3 2 3 5 8 7 7 8
6 6 5 5 4 3 3 3 3 3 3 2 2 2 3 3 3 3 2 2 2 2 2 3 3 3 3 3 2 2 2 2 2 3 3 3 2 2 2 5 7 7 7
6 6 5 5 4 3 3 3 3 3 3 3 2 2 3 3 3 3 2 2 3 3 3 3 3 3 2 2 3 3 2 2 2 2 2 2 2 3 3 3 3 4 6
6 6 5 5 4 3 3 2 2 2 2 2 2 3 3 3 3 3 3 3 3 3 3 3 3 3 3 2 3 3 3 3 3 2 2 2 2 2 3 2 2 2 2
7 6 5 5 4 3 2 2 2 2 2 2 2 3 4 4 3 3 3 3 3 3 4 3 3 3 2 2 2 3 3 3 3 2 2 2 2 2 2 3 3 2 2
7 6 6 5 4 4 3 3 3 3 3 3 3 2 3 3 3 3 4 3 3 3 2 2 2 3 2 1 1 2 2 1 1 2 1 1 1 1 1 2 3 3 3
7 6 6 5 4 4 4 4 5 4 2 1 1 1 2 3 3 3 3 3 3 2 2 1 2 1 2 1 1 1 2 3 2 0 2 1 0 1 1 2 3 3 3
8 7 6 5 4 4 4 5 5 3 2 1 2 3 2 2 2 3 3 3 3 2 2 2 2 2 1 1 1 1 1 2 2 2 0 1 1 1 0 1 2 2 2
7 7 6 5 4 4 4 4 5 5 4 3 3 2 1 1 1 2 2 2 2 1 1 1 1 2 1 1 1 1 2 1 1 1 1 1 0 1 1 0 1 1 1
Wind_Direction
173 165 147 140 136 133 132 133 132 132 131 129 128 129 132 134 137 139 140 140 143 147 151 153 152 152 150 150 149 148 149 150 152 155 157 158 161 161 159 156 155 148 147
160 164 149 139 136 136 133 133 132 130 128 128 127 129 130 133 136 139 143 144 147 150 152 155 155 154 155 153 151 151 153 154 156 157 158 162 166 166 165 163 164 158 156
141 155 148 143 141 137 135 133 130 132 132 130 127 129 131 134 138 141 145 149 152 155 158 157 155 155 155 156 156 157 159 160 160 160 159 161 169 171 170 169 169 165 163
140 148 150 146 141 136 135 137 134 136 138 136 133 134 135 137 139 142 146 150 154 157 159 158 159 159 159 160 161 162 164 167 167 165 163 164 172 175 173 171 172 171 169
134 146 152 143 141 141 142 143 142 140 142 144 142 141 141 143 143 145 149 153 154 157 160 160 163 166 169 171 170 168 170 174 175 172 162 168 173 177 178 176 176 175 174
129 139 144 140 145 148 150 148 144 142 142 143 143 144 146 147 149 152 152 153 155 158 162 165 169 173 177 177 174 174 176 176 174 163 163 171 176 179 180 178 176 175 176
129 131 139 137 140 144 148 150 146 142 138 136 137 138 143 145 146 151 153 156 160 163 167 170 176 180 182 179 177 179 180 175 168 160 168 176 179 176 177 175 174 171 175
135 136 138 139 132 135 141 143 143 139 136 132 127 128 133 135 141 151 159 164 166 168 173 178 185 186 184 182 179 178 175 175 172 169 171 179 177 176 175 172 170 168 168
128 129 133 139 130 129 131 135 136 136 135 128 124 124 131 139 150 160 169 172 174 179 183 187 190 193 187 183 180 175 174 175 164 166 177 182 178 176 177 174 171 172 172
110 114 122 114 97 113 130 136 135 132 130 126 127 128 135 148 164 170 171 170 176 188 194 195 196 192 187 183 181 176 175 174 157 160 180 183 181 180 179 175 174 173 171
99 94 106 111 111 116 124 132 137 135 128 126 126 117 116 135 198 181 175 176 180 185 190 196 199 195 196 192 185 183 187 166 157 170 179 180 182 182 181 177 176 174 173
109 107 100 108 115 112 125 115 111 114 106 94 82 86 71 46 114 128 163 176 179 182 202 215 221 212 203 175 175 182 166 159 166 170 175 174 179 181 178 174 175 174 175
117 110 102 108 108 107 98 99 92 87 91 86 81 79 77 59 62 71 78 77 65 31 345 335 330 127 143 146 149 150 155 161 166 173 176 176 180 178 175 171 172 173 176
101 99 97 102 95 93 98 98 102 100 94 87 82 83 84 73 70 78 83 59 45 27 23 343 77 99 124 140 134 138 145 155 158 165 168 168 173 175 174 173 172 170 172
105 102 103 98 94 93 91 90 93 95 104 103 89 78 91 97 87 81 74 71 62 56 52 39 79 92 109 127 134 140 142 142 151 155 158 164 163 164 169 174 173 171 173
120 115 109 96 94 93 90 85 85 92 94 92 85 88 96 101 98 91 75 60 54 52 57 60 77 90 107 125 129 133 134 132 131 134 144 162 162 162 163 167 171 175 180
134 127 117 113 94 91 89 88 87 86 89 87 84 82 90 96 95 92 83 65 52 54 49 52 63 74 83 105 113 115 119 122 130 130 141 149 161 163 163 165 169 176 181
131 127 122 117 98 92 91 88 83 78 80 80 80 80 84 91 93 91 83 63 45 48 52 59 64 68 68 86 100 109 112 119 128 136 139 146 150 160 164 164 168 176 178
137 133 123 113 110 107 98 91 84 81 80 76 74 72 77 83 85 90 79 61 59 60 53 58 60 74 81 83 98 100 100 111 127 132 139 146 152 157 164 169 169 172 178
133 132 128 116 113 110 97 85 74 70 66 63 70 73 77 81 84 86 82 59 64 68 55 54 60 60 76 81 92 82 79 95 108 121 138 137 151 161 157 160 162 168 170
134 130 127 119 118 113 104 100 95 89 78 63 65 69 76 77 78 80 75 60 60 67 61 62 67 65 55 58 74 59 43 50 79 92 99 119 140 155 142 147 156 154 170
145 138 129 128 128 123 128 127 121 118 104 95 57 53 63 71 72 80 70 64 61 69 56 53 69 66 58 55 88 83 50 21 23 61 89 114 123 132 148 159 158 155 171
150 149 143 137 131 125 117 103 93 74 57 48 47 50 53 69 69 71 73 76 70 74 69 54 63 85 84 20 66 113 117 152 344 5 45 84 111 129 143 166 168 175 182
155 145 135 134 126 121 117 117 120 119 114 122 112 83 63 63 69 75 78 76 73 72 79 73 70 75 104 81 12 52 125 148 136 40 350 4 24 130 168 169 175 188 192
152 144 137 130 124 122 123 129 125 119 123 111 94 87 72 53 61 73 80 79 75 70 67 55 53 61 89 118 104 74 66 56 88 130 184 339 353 323 206 178 189 191 191
146 141 139 132 127 125 125 128 130 131 126 116 111 110 95 65 55 61 85 84 89 82 73 62 64 72 74 79 77 104 124 131 147 135 159 196 277 305 326 225 182 192 193